Year,Month,Day,Hour,Minute,Value (Times are PST for temperature in C)
2014,03,05,08,46,4.90
2014,03,05,08,47,4.90
2014,03,05,08,48,5.00
2014,03,05,08,49,5.00
2014,03,05,08,50,5.00
2014,03,05,08,51,5.00
2014,03,05,08,52,5.10
2014,03,05,08,53,5.10
2014,03,05,08,54,5.10
2014,03,05,08,55,5.10
2014,03,05,08,56,5.20
2014,03,05,08,57,5.20
2014,03,05,08,58,5.20
2014,03,05,08,59,5.30
2014,03,05,09,00,5.30
2014,03,05,09,01,5.30
2014,03,05,09,02,5.40
2014,03,05,09,03,5.50
2014,03,05,09,04,5.60
2014,03,05,09,05,5.60
2014,03,05,09,06,5.70
2014,03,05,09,07,5.70
2014,03,05,09,08,5.80
2014,03,05,09,09,5.80
2014,03,05,09,10,5.90
2014,03,05,09,11,5.90
2014,03,05,09,12,5.90
2014,03,05,09,13,6.00
2014,03,05,09,14,6.00
2014,03,05,09,15,6.10
2014,03,05,09,16,6.10
2014,03,05,09,17,6.20
2014,03,05,09,18,6.20
2014,03,05,09,19,6.30
2014,03,05,09,20,6.30
2014,03,05,09,21,6.40
2014,03,05,09,22,6.40
2014,03,05,09,23,6.40
2014,03,05,09,24,6.50
2014,03,05,09,25,6.50
2014,03,05,09,26,6.50
2014,03,05,09,27,6.50
2014,03,05,09,28,6.50
2014,03,05,09,29,6.50
2014,03,05,09,30,6.50
2014,03,05,09,31,6.60
2014,03,05,09,32,6.60
2014,03,05,09,33,6.60
2014,03,05,09,34,6.70
2014,03,05,09,35,6.80
2014,03,05,09,36,6.90
2014,03,05,09,37,7.00
2014,03,05,09,38,7.10
2014,03,05,09,39,7.10
2014,03,05,09,40,7.20
2014,03,05,09,41,7.20
2014,03,05,09,42,7.20
2014,03,05,09,43,7.20
2014,03,05,09,44,7.30
2014,03,05,09,45,7.40
2014,03,05,09,46,7.30
2014,03,05,09,47,7.20
2014,03,05,09,48,7.20
2014,03,05,09,49,7.30
2014,03,05,09,50,7.40
2014,03,05,09,51,7.50
2014,03,05,09,52,7.60
2014,03,05,09,53,7.70
2014,03,05,09,54,7.70
2014,03,05,09,55,7.70
2014,03,05,09,56,7.70
2014,03,05,09,57,7.80
2014,03,05,09,58,7.90
2014,03,05,09,59,7.90
2014,03,05,10,00,7.90
2014,03,05,10,01,8.00
2014,03,05,10,02,8.10
2014,03,05,10,03,8.10
2014,03,05,10,04,8.10
2014,03,05,10,05,8.10
2014,03,05,10,06,7.90
2014,03,05,10,07,7.80
2014,03,05,10,08,7.80
2014,03,05,10,09,7.70
2014,03,05,10,10,7.50
2014,03,05,10,11,7.40
2014,03,05,10,12,7.40
2014,03,05,10,13,7.40
2014,03,05,10,14,7.40
2014,03,05,10,15,7.40
2014,03,05,10,16,7.40
2014,03,05,10,17,7.40
2014,03,05,10,18,7.50
2014,03,05,10,19,7.50
2014,03,05,10,20,7.50
2014,03,05,10,21,7.50
2014,03,05,10,22,7.50
2014,03,05,10,23,7.50
2014,03,05,10,24,7.40
2014,03,05,10,25,7.40
2014,03,05,10,26,7.30
2014,03,05,10,27,7.30
2014,03,05,10,28,7.20
2014,03,05,10,29,7.20
2014,03,05,10,30,7.10
2014,03,05,10,31,7.10
2014,03,05,10,32,7.00
2014,03,05,10,33,7.00
2014,03,05,10,34,7.00
2014,03,05,10,35,6.90
2014,03,05,10,36,6.90
2014,03,05,10,37,6.80
2014,03,05,10,38,6.70
2014,03,05,10,39,6.70
2014,03,05,10,40,6.60
2014,03,05,10,41,6.70
2014,03,05,10,42,6.70
2014,03,05,10,43,6.80
2014,03,05,10,44,6.80
2014,03,05,10,45,6.80
2014,03,05,10,46,6.90
2014,03,05,10,47,7.00
2014,03,05,10,48,7.00
2014,03,05,10,49,7.10
2014,03,05,10,50,7.20
2014,03,05,10,51,7.30
2014,03,05,10,52,7.20
2014,03,05,10,53,7.30
2014,03,05,10,54,7.40
2014,03,05,10,55,7.40
2014,03,05,10,56,7.40
2014,03,05,10,57,7.40
2014,03,05,10,58,7.40
2014,03,05,10,59,7.40
2014,03,05,11,00,7.50
2014,03,05,11,01,7.60
2014,03,05,11,02,7.60
2014,03,05,11,03,7.70
2014,03,05,11,04,7.70
2014,03,05,11,05,7.60
2014,03,05,11,06,7.60
2014,03,05,11,07,7.70
2014,03,05,11,08,7.80
2014,03,05,11,09,7.90
2014,03,05,11,10,7.90
2014,03,05,11,11,8.00
2014,03,05,11,12,8.10
2014,03,05,11,13,8.10
2014,03,05,11,14,8.10
2014,03,05,11,15,8.10
2014,03,05,11,16,8.10
2014,03,05,11,17,8.00
2014,03,05,11,18,8.00
2014,03,05,11,19,8.00
2014,03,05,11,20,8.10
2014,03,05,11,21,8.10
2014,03,05,11,22,8.10
2014,03,05,11,23,8.20
2014,03,05,11,24,8.20
2014,03,05,11,25,8.10
2014,03,05,11,26,8.10
2014,03,05,11,27,8.20
2014,03,05,11,28,8.10
2014,03,05,11,29,8.10
2014,03,05,11,30,8.10
2014,03,05,11,31,7.90
2014,03,05,11,32,7.70
2014,03,05,11,33,7.70
2014,03,05,11,34,7.60
2014,03,05,11,35,7.70
2014,03,05,11,36,7.60
2014,03,05,11,37,7.60
2014,03,05,11,38,7.60
2014,03,05,11,39,7.60
2014,03,05,11,40,7.60
2014,03,05,11,41,7.50
2014,03,05,11,42,7.40
2014,03,05,11,43,7.40
2014,03,05,11,44,7.50
2014,03,05,11,45,7.40
2014,03,05,11,46,7.40
2014,03,05,11,47,7.30
2014,03,05,11,48,7.40
2014,03,05,11,49,7.50
2014,03,05,11,50,7.40
2014,03,05,11,51,7.40
2014,03,05,11,52,7.40
2014,03,05,11,53,7.50
2014,03,05,11,54,7.40
2014,03,05,11,55,7.40
2014,03,05,11,56,7.40
2014,03,05,11,57,7.50
2014,03,05,11,58,7.40
2014,03,05,11,59,7.40
2014,03,05,12,00,7.20
2014,03,05,12,01,7.20
2014,03,05,12,02,7.20
2014,03,05,12,03,7.10
2014,03,05,12,04,7.00
2014,03,05,12,05,7.00
2014,03,05,12,06,7.10
2014,03,05,12,07,7.00
2014,03,05,12,08,7.00
2014,03,05,12,09,7.00
2014,03,05,12,10,7.00
2014,03,05,12,11,7.00
2014,03,05,12,12,7.00
2014,03,05,12,13,7.10
2014,03,05,12,14,7.10
2014,03,05,12,15,7.00
2014,03,05,12,16,7.00
2014,03,05,12,17,6.90
2014,03,05,12,18,6.90
2014,03,05,12,19,6.80
2014,03,05,12,20,6.80
2014,03,05,12,21,6.90
2014,03,05,12,22,6.90
2014,03,05,12,23,6.90
2014,03,05,12,24,6.90
2014,03,05,12,25,6.80
2014,03,05,12,26,6.80
2014,03,05,12,27,6.90
2014,03,05,12,28,6.90
2014,03,05,12,29,6.90
2014,03,05,12,30,6.90
2014,03,05,12,31,7.00
2014,03,05,12,32,7.00
2014,03,05,12,33,7.10
2014,03,05,12,34,7.10
2014,03,05,12,35,7.00
2014,03,05,12,36,6.90
2014,03,05,12,37,6.90
2014,03,05,12,38,6.90
2014,03,05,12,39,6.90
2014,03,05,12,40,7.00
2014,03,05,12,41,7.10
2014,03,05,12,42,7.20
2014,03,05,12,43,7.10
2014,03,05,12,44,7.10
2014,03,05,12,45,7.10
2014,03,05,12,46,7.10
2014,03,05,12,47,7.00
2014,03,05,12,48,7.10
2014,03,05,12,49,7.10
2014,03,05,12,50,7.10
2014,03,05,12,51,7.20
2014,03,05,12,52,7.20
2014,03,05,12,53,7.20
2014,03,05,12,54,7.20
2014,03,05,12,55,7.20
2014,03,05,12,56,7.20
2014,03,05,12,57,7.30
2014,03,05,12,58,7.40
2014,03,05,12,59,7.40
2014,03,05,13,00,7.40
2014,03,05,13,01,7.40
2014,03,05,13,02,7.40
2014,03,05,13,03,7.50
2014,03,05,13,04,7.60
2014,03,05,13,05,7.70
2014,03,05,13,06,7.80
2014,03,05,13,07,7.80
2014,03,05,13,08,7.80
2014,03,05,13,09,7.80
2014,03,05,13,10,7.80
2014,03,05,13,11,7.90
2014,03,05,13,12,7.90
2014,03,05,13,13,8.00
2014,03,05,13,14,8.10
2014,03,05,13,15,8.30
2014,03,05,13,16,8.40
2014,03,05,13,17,8.40
2014,03,05,13,18,8.30
2014,03,05,13,19,8.30
2014,03,05,13,20,8.40
2014,03,05,13,21,8.50
2014,03,05,13,22,8.60
2014,03,05,13,23,8.60
2014,03,05,13,24,8.60
2014,03,05,13,25,8.60
2014,03,05,13,26,8.60
2014,03,05,13,27,8.70
2014,03,05,13,28,8.70
2014,03,05,13,29,8.60
2014,03,05,13,30,8.60
2014,03,05,13,31,8.70
2014,03,05,13,32,8.80
2014,03,05,13,33,8.80
2014,03,05,13,34,8.90
2014,03,05,13,35,8.90
2014,03,05,13,36,9.00
2014,03,05,13,37,9.10
2014,03,05,13,38,9.20
2014,03,05,13,39,9.10
2014,03,05,13,40,9.00
2014,03,05,13,41,8.90
2014,03,05,13,42,8.90
2014,03,05,13,43,8.80
2014,03,05,13,44,8.60
2014,03,05,13,45,8.60
2014,03,05,13,46,8.60
2014,03,05,13,47,8.50
2014,03,05,13,48,8.40
2014,03,05,13,49,8.30
2014,03,05,13,50,8.20
2014,03,05,13,51,8.10
2014,03,05,13,52,8.10
2014,03,05,13,53,8.10
2014,03,05,13,54,8.10
2014,03,05,13,55,8.10
2014,03,05,13,56,8.10
2014,03,05,13,57,8.10
2014,03,05,13,58,8.20
2014,03,05,13,59,8.20
2014,03,05,14,00,8.30
2014,03,05,14,01,8.30
2014,03,05,14,02,8.40
2014,03,05,14,03,8.50
2014,03,05,14,04,8.50
2014,03,05,14,05,8.60
2014,03,05,14,06,8.60
2014,03,05,14,07,8.60
2014,03,05,14,08,8.70
2014,03,05,14,09,8.70
2014,03,05,14,10,8.70
2014,03,05,14,11,8.70
2014,03,05,14,12,8.70
2014,03,05,14,13,8.70
2014,03,05,14,14,8.70
2014,03,05,14,15,8.70
2014,03,05,14,16,8.70
2014,03,05,14,17,8.70
2014,03,05,14,18,8.80
2014,03,05,14,19,8.80
2014,03,05,14,20,8.80
2014,03,05,14,21,8.80
2014,03,05,14,22,8.80
2014,03,05,14,23,8.90
2014,03,05,14,24,8.80
2014,03,05,14,25,8.80
2014,03,05,14,26,8.90
2014,03,05,14,27,8.90
2014,03,05,14,28,9.00
2014,03,05,14,29,9.00
2014,03,05,14,30,9.00
2014,03,05,14,31,9.00
2014,03,05,14,32,9.00
2014,03,05,14,33,8.90
2014,03,05,14,34,8.90
2014,03,05,14,35,9.00
2014,03,05,14,36,9.00
2014,03,05,14,37,9.10
2014,03,05,14,38,9.10
2014,03,05,14,39,9.10
2014,03,05,14,40,9.10
2014,03,05,14,41,9.20
2014,03,05,14,42,9.20
2014,03,05,14,43,9.20
2014,03,05,14,44,9.30
2014,03,05,14,45,9.30
2014,03,05,14,46,9.30
2014,03,05,14,47,9.30
2014,03,05,14,48,9.40
2014,03,05,14,49,9.40
2014,03,05,14,50,9.40
2014,03,05,14,51,9.40
2014,03,05,14,52,9.30
2014,03,05,14,53,9.30
2014,03,05,14,54,9.30
2014,03,05,14,55,9.20
2014,03,05,14,56,9.20
2014,03,05,14,57,9.20
2014,03,05,14,58,9.20
2014,03,05,14,59,9.20
2014,03,05,15,00,9.20
2014,03,05,15,01,9.30
2014,03,05,15,02,9.30
2014,03,05,15,03,9.30
2014,03,05,15,04,9.30
2014,03,05,15,05,9.30
2014,03,05,15,06,9.40
2014,03,05,15,07,9.40
2014,03,05,15,08,9.40
2014,03,05,15,09,9.40
2014,03,05,15,10,9.40
2014,03,05,15,11,9.30
2014,03,05,15,12,9.30
2014,03,05,15,13,9.30
2014,03,05,15,14,9.30
2014,03,05,15,15,9.30
2014,03,05,15,16,9.30
2014,03,05,15,17,9.30
2014,03,05,15,18,9.30
2014,03,05,15,19,9.30
2014,03,05,15,20,9.30
2014,03,05,15,21,9.30
2014,03,05,15,22,9.30
2014,03,05,15,23,9.40
2014,03,05,15,24,9.40
2014,03,05,15,25,9.40
2014,03,05,15,26,9.40
2014,03,05,15,27,9.40
2014,03,05,15,28,9.40
2014,03,05,15,29,9.40
2014,03,05,15,30,9.40
2014,03,05,15,31,9.50
2014,03,05,15,32,9.50
2014,03,05,15,33,9.50
2014,03,05,15,34,9.60
2014,03,05,15,35,9.60
2014,03,05,15,36,9.60
2014,03,05,15,37,9.60
2014,03,05,15,38,9.60
2014,03,05,15,39,9.60
2014,03,05,15,40,9.60
2014,03,05,15,41,9.70
2014,03,05,15,42,9.70
2014,03,05,15,43,9.70
2014,03,05,15,44,9.70
2014,03,05,15,45,9.70
2014,03,05,15,46,9.70
2014,03,05,15,47,9.70
2014,03,05,15,48,9.70
2014,03,05,15,49,9.80
2014,03,05,15,50,9.80
2014,03,05,15,51,9.80
2014,03,05,15,52,9.80
2014,03,05,15,53,9.80
2014,03,05,15,54,9.90
2014,03,05,15,55,9.90
2014,03,05,15,56,9.90
2014,03,05,15,57,9.90
2014,03,05,15,58,9.90
2014,03,05,15,59,9.90
2014,03,05,16,00,9.90
2014,03,05,16,01,9.90
2014,03,05,16,02,9.90
2014,03,05,16,03,9.90
2014,03,05,16,04,9.90
2014,03,05,16,05,9.90
2014,03,05,16,06,9.90
2014,03,05,16,07,9.90
2014,03,05,16,08,9.90
2014,03,05,16,09,9.90
2014,03,05,16,10,9.90
